New York, NY

4:30 AM EST on November 20, 2017 (GMT -0500)
La Guardia

Weather History for KLGA - April, 2014

Change the Weather History Date:

Thursday, April 10, 2014

  Actual Average Record
Temperature  
Mean Temperature 50 °F 51 °F  
Max Temperature 58 °F 59 °F 82 °F (1955)
Min Temperature 42 °F 43 °F 29 °F (1974)
Degree Days  
Heating Degree Days 15 14  
Month to date heating degree days 160 160  
Since 1 July heating degree days 4675 4296  
Cooling Degree Days 0 0  
Month to date cooling degree days 0 0  
Year to date cooling degree days 0 0  
Moisture  
Dew Point 22 °F    
Average Humidity 36    
Maximum Humidity 50    
Minimum Humidity 21    
Precipitation  
Precipitation 0.00 in 0.14 in 2.85 in (1983)
Month to date precipitation 1.26 1.40  
Year to date precipitation 12.21 11.30  
Snow  
Snow 0.00 in 0.00 in 0.30 in (1974)
Month to date snowfall 0.0 0.3  
Since 1 July snowfall 52.1 26.7  
Snow Depth 0.00 in    
Sea Level Pressure  
Sea Level Pressure 30.11 in    
Wind  
Wind Speed 11 mph (SSW)    
Max Wind Speed 25 mph    
Max Gust Speed 33 mph    
Visibility 10 miles    
Events      
T = Trace of Precipitation, MM = Missing Value Source: NWS Daily Summary

Daily Weather History Graph

Daily Weather History Graph

Search for Another Location

Airport or City:

Trip Planner

Search our weather history database for the weather conditions in past years. The results will help you decide how hot, cold, wet, or windy it might be!

Date:

Astronomy

Apr. 10, 2014 Rise Set
Actual Time 6:24 AM EDT 7:29 PM EDT
Civil Twilight 5:56 AM EDT 7:57 PM EDT
Nautical Twilight 5:22 AM EDT 8:31 PM EDT
Astronomical Twilight 4:48 AM EDT 9:06 PM EDT
Moon 3:09 PM EDT (4/10) 3:47 AM EDT (4/10)
Length of Visible Light 14h 01m
Length of Day
13h 05m
Waxing Gibbous, 79% of the Moon is Illuminated
Apr 10
Waxing Gibbous
Apr 15
Full
Apr 22
Last Quarter
Apr 29
New
May 6
First Quarter

Hourly Weather History & Observations

Time (EDT) Temp. Windchill Dew Point Humidity Pressure Visibility Wind Dir Wind Speed Gust Speed Precip Events Conditions
12:51 AM 46.0 °F 40.6 °F 14.0 °F 28% 30.06 in 10.0 mi NNW 11.5 mph - N/A   Clear
1:51 AM 45.0 °F 40.1 °F 14.0 °F 29% 30.06 in 10.0 mi North 9.2 mph - N/A   Clear
2:51 AM 44.1 °F 41.5 °F 17.1 °F 34% 30.07 in 10.0 mi North 4.6 mph - N/A   Clear
3:51 AM 44.1 °F - 14.0 °F 30% 30.09 in 10.0 mi Calm Calm - N/A   Clear
4:51 AM 43.0 °F - 17.1 °F 35% 30.11 in 10.0 mi Calm Calm - N/A   Clear
5:51 AM 43.0 °F 41.3 °F 16.0 °F 34% 30.13 in 10.0 mi SSW 3.5 mph - N/A   Clear
6:51 AM 44.1 °F 41.5 °F 15.1 °F 31% 30.17 in 10.0 mi SW 4.6 mph - N/A   Clear
7:51 AM 46.4 °F 42.9 °F 14.0 °F 27% 30.19 in 10.0 mi SSW 6.9 mph - N/A   Clear
8:51 AM 48.0 °F - 15.1 °F 27% 30.20 in 10.0 mi SSW 9.2 mph - N/A   Clear
9:51 AM 50.0 °F - 12.9 °F 23% 30.22 in 10.0 mi SSW 12.7 mph - N/A   Clear
10:51 AM 53.1 °F - 15.1 °F 22% 30.22 in 10.0 mi SW 11.5 mph - N/A   Clear
11:51 AM 54.0 °F - 18.0 °F 24% 30.20 in 10.0 mi SW 11.5 mph - N/A   Clear
12:51 PM 55.0 °F - 19.0 °F 24% 30.17 in 10.0 mi South 15.0 mph 23.0 mph N/A   Partly Cloudy
1:51 PM 55.9 °F - 21.0 °F 26% 30.15 in 10.0 mi South 18.4 mph 24.2 mph N/A   Partly Cloudy
2:51 PM 55.0 °F - 23.0 °F 29% 30.14 in 10.0 mi SSE 17.3 mph 25.3 mph N/A   Partly Cloudy
3:51 PM 55.0 °F - 21.9 °F 28% 30.11 in 10.0 mi South 24.2 mph 29.9 mph N/A   Partly Cloudy
4:51 PM 55.9 °F - 26.1 °F 32% 30.08 in 10.0 mi South 23.0 mph 31.1 mph N/A   Partly Cloudy
5:51 PM 55.0 °F - 32.0 °F 42% 30.06 in 10.0 mi South 18.4 mph 29.9 mph N/A   Partly Cloudy
6:51 PM 55.0 °F - 33.1 °F 43% 30.06 in 10.0 mi South 17.3 mph 23.0 mph N/A   Scattered Clouds
7:51 PM 54.0 °F - 34.0 °F 47% 30.06 in 10.0 mi SSW 21.9 mph - N/A   Clear
8:51 PM 54.0 °F - 32.0 °F 43% 30.06 in 10.0 mi SSW 18.4 mph - N/A   Partly Cloudy
9:51 PM 53.1 °F - 30.9 °F 43% 30.06 in 10.0 mi SSW 9.2 mph - N/A   Mostly Cloudy
10:51 PM 51.8 °F - 33.8 °F 50% 30.04 in 10.0 mi SSW 6.9 mph - N/A   Overcast
11:51 PM 52.0 °F - 34.0 °F 50% 30.04 in 10.0 mi SSW 5.8 mph - N/A   Mostly Cloudy